Location: Ash Swamp
(41.5170°N, 74.6157°W)
Time: 02:39:42
(UTC+00:00)

Lacrosse 5 rocket - Pass Details

Date: 14 July 2020
Orbit: 465 x 631 km, 57.0° (Epoch: 14 August)

Event Time Altitude Azimuth Distance (km) Brightness Sun altitude
Rises 04:34:34 0° 307° (NW) 2,680 5.5 -26.5°
Reaches altitude 10° 04:36:58 10° 298° (WNW) 1,755 4.3 -26.6°
Enters shadow 04:38:14 18° 287° (WNW) 1,319 3.5 -26.6°
